DH4SBM Weather Reports


Display with metric or nautical units.
time (UTC)temp
F
wind
direction
speed
MPH
gust
MPH
rain 1hr
in
rain 24hr
in
rain mn
in
humidity
%
barometer
mb
20260901141023 75 292 6.0 11.0 0.00 0.03 0.00 47 1022.0
20260901140023 75 292 8.0 16.0 0.00 0.03 0.00 48 1022.2
20260901135023 74 292 5.0 8.0 0.00 0.03 0.00 49 1022.2
20260901134022 74 292 9.0 15.0 0.00 0.03 0.00 49 1022.3
20260901133022 74 315 6.0 13.0 0.00 0.03 0.00 50 1022.2
20260901132022 74 270 6.0 11.0 0.00 0.03 0.00 49 1022.4
20260901131024 75 292 7.0 13.0 0.00 0.03 0.00 49 1022.4
20260901053024 58 0 0.0 0.0 0.00 0.04 0.00 86 1022.6
20260901052023 58 0 0.0 0.0 0.00 0.04 0.00 86 1022.6
20260901051023 58 0 0.0 0.0 0.00 0.04 0.00 85 1022.6
20260901050023 59 0 0.0 0.0 0.00 0.04 0.00 85 1022.5
20260901045023 59 0 0.0 0.0 0.00 0.04 0.00 85 1022.4
20260901044023 59 0 0.0 0.0 0.00 0.04 0.00 85 1022.3
20260901043023 59 0 0.0 0.0 0.00 0.04 0.00 85 1022.3
20260901042022 59 0 0.0 0.0 0.00 0.04 0.00 84 1022.2
20260901041022 59 0 0.0 0.0 0.00 0.04 0.00 84 1022.2
20260901040022 59 0 1.0 0.0 0.00 0.04 0.00 83 1022.1
20260901035022 60 0 1.0 3.0 0.00 0.04 0.00 82 1022.2
20260901034024 60 0 1.0 3.0 0.00 0.04 0.00 82 1022.1
20260901033022 60 0 1.0 3.0 0.00 0.04 0.00 82 1022.1
20260901032021 60 0 1.0 3.0 0.00 0.04 0.00 82 1022.1
20260901031021 60 0 1.0 3.0 0.00 0.04 0.00 82 1021.9
20260901030021 60 0 1.0 3.0 0.00 0.04 0.00 82 1022.1
20260901025023 60 0 1.0 3.0 0.00 0.04 0.00 82 1022.0
20260901024023 60 0 1.0 3.0 0.00 0.04 0.00 82 1022.0
20260901023022 60 0 1.0 3.0 0.00 0.04 0.00 82 1022.1
20260901022022 60 225 1.0 3.0 0.00 0.04 0.00 82 1022.1
20260901021022 60 225 1.0 3.0 0.00 0.04 0.00 82 1021.9
20260901020738 60 225 1.0 4.0 0.00 0.04 0.00 82 1021.9
20260901015740 60 225 3.0 4.0 0.00 0.05 0.00 82 1021.9
20260901014739 60 225 1.0 4.0 0.00 0.05 0.00 82 1021.8
20260901013739 60 225 0.0 3.0 0.00 0.05 0.00 82 1021.8
20260901012739 60 0 0.0 0.0 0.00 0.05 0.00 82 1021.7
20260901011739 60 0 0.0 0.0 0.00 0.05 0.00 82 1021.6
20260901010739 60 0 0.0 4.0 0.00 0.05 0.00 82 1021.7
20260901005738 60 248 1.0 4.0 0.00 0.06 0.00 83 1021.7
20260901004738 60 248 1.0 4.0 0.00 0.06 0.00 83 1021.7
20260901003738 60 202 0.0 3.0 0.00 0.06 0.00 83 1021.7
20260901002738 60 0 0.0 4.0 0.00 0.06 0.00 83 1021.5
20260901001738 60 202 1.0 4.0 0.00 0.06 0.00 83 1021.5
20260901000737 60 202 0.0 4.0 0.00 0.06 0.00 82 1021.6
20260831235737 60 180 1.0 4.0 0.00 0.14 0.00 82 1021.5
20260831234737 60 180 1.0 4.0 0.00 0.14 0.00 82 1021.3
20260831233739 60 180 1.0 3.0 0.00 0.14 0.00 82 1021.2
20260831232739 60 180 2.0 6.0 0.00 0.14 0.00 82 1021.2
20260831231519 61 180 2.0 6.0 0.00 0.14 0.00 81 1021.2
20260831230519 61 158 1.0 4.0 0.00 0.14 0.00 80 1021.2
20260831225520 62 202 1.0 3.0 0.00 0.14 0.00 80 1021.2
20260831224519 62 225 1.0 4.0 0.00 0.14 0.00 79 1021.3
20260831223518 62 225 2.0 4.0 0.00 0.14 0.00 79 1021.3
20260831222518 62 225 0.0 3.0 0.00 0.14 0.00 80 1021.3
20260831221519 62 225 0.0 3.0 0.00 0.14 0.00 79 1021.2
20260831220519 62 225 1.0 3.0 0.00 0.14 0.00 79 1021.3
20260831215519 62 225 1.0 4.0 0.00 0.14 0.14 79 1021.0
20260831214519 62 225 1.0 3.0 0.00 0.14 0.14 79 1021.0
20260831213519 62 225 1.0 3.0 0.00 0.14 0.14 79 1020.9
20260831212518 62 225 1.0 3.0 0.00 0.14 0.14 79 1020.8
20260831211518 62 225 1.0 4.0 0.00 0.14 0.14 78 1020.7
20260831210518 62 225 1.0 3.0 0.00 0.14 0.14 78 1020.6
20260831205520 63 225 3.0 5.0 0.00 0.14 0.14 78 1020.5
20260831204520 63 225 3.0 7.0 0.00 0.14 0.14 77 1020.5
20260831203519 63 248 4.0 10.0 0.00 0.14 0.14 77 1020.5
20260831202519 63 225 4.0 8.0 0.00 0.14 0.14 78 1020.3
20260831201519 63 225 4.0 9.0 0.00 0.14 0.14 78 1020.3
20260831200519 63 202 3.0 6.0 0.00 0.14 0.14 78 1020.2
20260831195519 63 202 4.0 7.0 0.00 0.14 0.14 78 1020.2
20260831194518 64 225 5.0 9.0 0.00 0.14 0.14 78 1020.2
20260831193519 64 225 5.0 10.0 0.00 0.14 0.14 78 1020.3
20260831192519 64 225 6.0 13.0 0.00 0.14 0.14 78 1020.1
20260831191519 64 225 7.0 12.0 0.00 0.14 0.14 78 1020.1
20260831190519 64 225 7.0 15.0 0.00 0.14 0.14 78 1020.0
20260831185518 64 225 6.0 13.0 0.00 0.14 0.14 78 1019.7
20260831184518 64 225 6.0 16.0 0.00 0.14 0.14 79 1019.6
20260831183518 64 248 6.0 12.0 0.00 0.14 0.14 80 1019.4
20260831182518 64 248 5.0 11.0 0.00 0.14 0.14 80 1019.3
20260831181520 64 248 4.0 8.0 0.00 0.14 0.14 81 1019.0
20260831180519 64 225 6.0 12.0 0.00 0.14 0.14 81 1018.9
20260831175519 64 225 5.0 10.0 0.00 0.14 0.14 80 1018.8
20260831174519 64 248 9.0 17.0 0.00 0.14 0.14 80 1018.7
20260831173519 65 270 10.0 19.0 0.00 0.14 0.14 80 1019.0
20260831172519 64 292 6.0 14.0 0.00 0.14 0.14 81 1018.9
20260831171519 64 292 3.0 9.0 0.01 0.14 0.14 82 1018.5
20260831170518 64 270 5.0 10.0 0.03 0.14 0.14 81 1018.5
20260831165518 64 292 4.0 8.0 0.03 0.14 0.14 81 1018.4
20260831164518 64 292 7.0 13.0 0.03 0.14 0.14 80 1018.3
20260831163518 64 270 9.0 17.0 0.03 0.14 0.14 79 1018.6
20260831162518 65 270 10.0 17.0 0.03 0.14 0.14 80 1018.6
20260831161520 66 292 14.0 32.0 0.02 0.13 0.13 77 1018.7
20260831160519 71 270 15.0 33.0 0.00 0.11 0.11 64 1018.3
20260831155519 73 248 11.0 24.0 0.00 0.11 0.11 56 1017.7
20260831154519 74 248 9.0 17.0 0.00 0.11 0.11 55 1017.7
20260831153519 74 248 10.0 18.0 0.00 0.11 0.11 55 1017.6
20260831152518 73 270 10.0 20.0 0.00 0.11 0.11 56 1017.5
20260831151518 73 248 8.0 18.0 0.00 0.11 0.11 57 1017.5
20260831150517 73 225 6.0 14.0 0.00 0.11 0.11 55 1017.5
20260831145517 73 248 8.0 13.0 0.00 0.11 0.11 55 1017.6
20260831144517 74 292 7.0 12.0 0.00 0.11 0.11 56 1017.4
20260831143519 74 248 9.0 17.0 0.00 0.11 0.11 54 1017.4
20260831142518 73 270 10.0 19.0 0.00 0.11 0.11 57 1017.5
20260831141518 74 270 8.0 17.0 0.00 0.11 0.11 53 1017.5